Location: Harbor Island
(32.3990°N, 80.4435°W)
Time: 19:07:23
(UTC-04:00)

Daily predictions for brighter satellites

Satellite Brightness Start Highest point End
(mag) Time Altitude Azimuth Time Altitude Azimuth Time Altitude Azimuth
Cosmos 2360 Rocket 2.4 20:07:04 10° SSW 20:12:41 80° WNW 20:18:20 10° NNE
DELTA 2 R/B (1) 4.2 20:07:52 10° WNW 20:13:13 51° SSW 20:18:34 10° SE
SJ 16-02 4.4 20:11:35 10° WSW 20:14:57 22° WNW 20:18:21 10° NNW
NOSS 2-1 (C) 3.3 20:12:08 10° S 20:15:39 46° ESE 20:19:11 10° NE
NOSS 2-1 (D) 3.3 20:13:04 10° SSW 20:16:37 49° ESE 20:20:12 10° NE
ALOS 4.4 20:12:38 10° SSW 20:16:43 30° W 20:20:49 10° NW
Meteor 2-10 4.3 20:11:54 10° S 20:17:38 88° E 20:23:23 10° N
Resurs 01 Rocket 3.4 20:16:20 10° E 20:18:46 15° ENE 20:21:12 10° NE
Cosmos 2333 Rocket 3.2 20:14:29 10° SSE 20:18:50 23° ESE 20:23:11 10° NE
HJ-1C 3.8 20:18:19 10° SSE 20:21:29 42° ENE 20:24:41 10° N
GPS 2-05 Rocket1 2.8 20:19:31 10° WNW 20:22:53 78° NNE 20:26:16 10° ESE
COSMOS 2428 3.0 20:18:26 10° S 20:23:54 48° ESE 20:29:22 10° NNE
CZ-2D R/B 3.9 20:21:04 10° SE 20:24:33 36° ENE 20:28:03 10° N
FengYun 1-2 T 4.3 20:19:23 10° SSE 20:24:59 89° ENE 20:30:38 10° NNW
deb Centaur AC-2 4.2 20:21:54 10° WSW 20:26:10 60° S 20:30:48 10° E
Cosmos 2181 Rocket 4.4 20:19:51 10° N 20:26:18 77° W 20:32:42 10° S
Cosmos 2333 4.3 20:21:43 10° S 20:27:13 54° ESE 20:32:41 10° NNE
H-2A R/B 1.9 20:21:25 10° W 20:27:33 43° SSW 20:29:43 10° SE
FREGAT/IRIS 2.5 20:25:13 10° SSE 20:28:09 89° ENE 20:31:06 10° N
Delta 128 4.5 20:24:11 10° W 20:29:18 55° S 20:35:09 11° ESE
Cosmos 1455 3.7 20:33:20 10° SE 20:35:58 18° E 20:38:37 10° NE
Cosmos 1844 Rocket 3.7 20:32:00 10° N 20:36:54 29° ENE 20:41:04 13° ESE
Cosmos 2263 Rocket 3.2 20:33:24 10° NNW 20:38:51 49° WSW 20:44:16 10° S
Cosmos 2237 Rocket 3.4 20:36:55 10° SE 20:40:48 19° E 20:44:41 10° NE
Cosmos 2219 Rocket 2.4 20:36:15 10° S 20:41:37 46° ESE 20:47:00 10° NE
Cosmos 2074 Rocket 4.2 20:35:41 10° S 20:41:58 81° W 20:48:18 10° N
ERS-2 2.5 20:39:28 10° SSE 20:42:56 44° ENE 20:46:27 10° N
Cosmos 1892 4.0 20:42:51 10° NNE 20:46:01 23° ENE 20:47:45 17° ESE
NOSS 2-1 (E) 3.3 20:43:19 10° SW 20:46:57 76° WNW 20:50:43 10° NNE
Cosmos 1610 Rocket 4.4 20:42:19 10° S 20:48:23 74° E 20:54:31 10° N
ATLAS CENTAUR R/B 1.7 20:45:56 10° S 20:49:08 31° ESE 20:52:26 10° NE
Cosmos 2278 Rocket 4.1 20:51:09 10° NNE 20:53:36 13° NE 20:55:31 11° ENE
USA 186 1.4 20:55:32 35° E 20:55:44 36° ENE 20:57:50 10° N
Resurs 1-3 4.1 20:53:53 16° SE 20:56:57 40° ENE 21:01:03 10° N
NOSS 3-3 (A) 3.8 20:52:28 10° SSW 20:58:20 77° ESE 21:04:42 10° NNE
NOSS 3-3 (C) 3.8 20:52:34 10° SSW 20:58:26 76° ESE 21:04:48 10° NNE
Cosmos 1666 Rocket 3.9 20:55:50 10° N 21:00:08 44° E 21:03:03 19° SSE
OAO 2 Rocket 3.6 20:56:11 10° WNW 21:01:22 67° N 21:04:58 19° E
YAOGAN 6 2.6 21:01:47 20° SSE 21:04:03 58° ENE 21:07:37 10° N
Meteor 2-21 Rocket 4.4 20:58:09 10° S 21:04:09 64° E 21:10:14 10° NNE
Cosmos 494 Rocket 4.1 21:03:33 10° NNW 21:08:46 77° WSW 21:13:58 10° S
Cosmos 1340 3.4 21:09:03 10° SSW 21:12:45 53° W 21:16:29 10° N
Cosmos 1151 Rocket 3.6 21:13:26 31° ESE 21:13:58 33° E 21:17:47 10° NNE
USA 267 3.7 21:08:24 10° ENE 21:14:16 35° SE 21:20:06 10° S
Sich 1 2.8 21:10:59 10° N 21:15:16 78° E 21:18:08 20° SSE
In-Cosmos 22 Rocket 4.3 21:10:23 10° NNW 21:15:49 71° W 21:21:07 10° S
SAR-Lupe-3 4.4 21:12:16 10° NNE 21:15:51 77° ESE 21:19:25 10° S
Nadezhda 3 Rocket 4.0 21:10:25 10° N 21:16:44 73° E 21:22:40 12° SSE
Cosmos 1939 Rocket 2.6 21:16:06 23° SSE 21:18:24 86° ENE 21:22:18 10° N
SJ-6B 4.4 21:15:33 10° SSW 21:19:19 36° W 21:23:03 10° NNW
Cosmos 2251 Rocket 3.5 21:14:40 10° NNW 21:20:02 72° ENE 21:23:05 26° SSE
Envisat 4.0 21:17:49 10° S 21:22:40 46° W 21:27:33 10° NNW
ASTRO E2 4.4 21:21:09 10° SSW 21:23:06 20° S 21:23:06 20° S
SL-16 R/B 4.4 21:33:18 10° NE 21:33:18 10° NE 21:33:22 10° NE
Cosmos 2098 Rocket 4.5 21:31:01 25° ENE 21:31:01 25° ENE 21:33:28 10° NNE
Cosmos 1825 4.1 21:27:01 10° NNE 21:28:24 17° NE 21:28:24 17° NE
Meteor 2-3 Rocket 3.7 21:26:36 10° N 21:32:10 66° E 21:34:38 34° SSE
Cosmos 2228 Rocket 3.0 21:32:02 44° SSE 21:33:12 62° E 21:37:32 10° NNE
Cosmos 1633 Rocket 3.0 21:29:43 10° N 21:34:04 86° W 21:35:52 35° S
Meteor 2-16 Rocket 4.5 21:30:22 10° S 21:36:30 82° W 21:42:40 10° N
SL-8 R/B 3.8 21:32:40 10° SW 21:37:26 73° NW 21:41:34 14° NE
Cosmos 1515 Rocket 3.4 21:37:19 44° SSE 21:38:40 74° E 21:43:09 10° N
SL-24 R/B - RUBIN 2 3.4 21:37:34 10° NNW 21:41:55 90° SSE 21:42:35 64° SSE
ARGOS 3.7 21:44:34 37° ENE 21:44:38 37° ENE 21:49:31 10° N
GEOS 3 Rocket 3.5 21:47:29 10° NE 21:52:48 73° ESE 21:58:00 10° SSW
Resurs 01 Rocket 2.8 21:52:33 23° SSW 21:54:51 40° W 21:59:03 10° NNW
Cosmos 1980 3.8 21:50:45 10° SSW 21:56:24 74° WNW 22:02:06 10° NNE
ATLAS 3B CENTAUR R/B 4.1 21:52:40 10° W 22:00:50 22° SW 22:03:21 18° SSW
Sakura Rocket 4.2 21:57:35 10° WSW 22:00:00 29° SW 22:00:00 29° SW
Cosmos 1959 Rocket 4.3 22:00:08 40° S 22:02:32 84° E 22:08:41 10° N
Cosmos 2333 Rocket 3.6 21:57:33 10° SW 22:02:48 38° WNW 22:08:02 10° N
Cosmos 1727 Rocket 4.4 21:59:40 10° N 22:04:57 43° ENE 22:04:57 43° ENE
Spot 2 Rocket 4.3 22:03:43 31° SSW 22:05:44 48° W 22:10:40 10° NNW
Meteor 2-10 Rocket 3.7 22:11:14 67° ENE 22:11:14 67° ENE 22:16:33 10° NNE
Cosmos 2218 Rocket 4.1 22:11:56 35° SSW 22:14:48 76° W 22:21:13 10° N
Cosmos 1470 Rocket 4.2 22:10:52 10° NNW 22:14:51 54° WNW 22:14:51 54° WNW
SL-08 R/B 4.4 22:15:09 65° S 22:16:12 86° E 22:22:37 10° N
ATLAS 2AS CENTAUR R/B 2.7 22:09:19 10° NNW 22:17:07 81° ENE 22:18:17 66° SE
Cosmos 1844 Rocket 4.1 22:15:45 10° NW 22:20:40 31° WSW 22:22:47 24° SW
ATLAS 2A CENTAUR R/B 3.8 22:07:59 10° WSW 22:24:23 47° S 22:24:56 47° SSE
Cosmos 2237 Rocket 3.2 22:19:07 10° SW 22:24:26 44° WNW 22:29:47 10° N
ATLAS CENTAUR R/B 4.2 22:26:07 10° W 22:28:10 14° NW 22:30:16 10° NNW
Cosmos 2366 rocket 4.3 22:27:18 44° SW 22:29:11 64° W 22:35:23 10° N
MetOp-A 4.4 22:33:30 64° NW 22:33:30 64° NW 22:38:11 10° NNW
H-2A R/B 2.8 22:39:07 46° NNW 22:39:07 46° NNW 22:42:37 10° NNW
Cosmos 2278 Rocket 2.5 22:32:35 10° NNW 22:37:23 63° NW 22:37:23 63° NW
NOSS 3-4 (A) 4.5 22:40:32 10° NNW 22:46:43 42° NE 22:46:43 42° NE
ERS-1 Rocket 4.2 22:50:18 38° NNW 22:50:18 38° NNW 22:53:27 10° NNW
USA 267 3.8 22:51:00 10° NNE 22:57:18 53° NW 23:03:36 10° WSW
Cosmos 2344 3.7 23:10:54 65° NNE 23:10:54 65° NNE 23:17:37 10° NNE
SL-16 R/B 3.7 23:15:04 32° NNW 23:15:04 32° NNW 23:18:29 10° N
